Tracking 17149 objects as of 22-May-2015
HD Live streaming from Space Station

INTELSAT 501

Track INTELSAT 501 now!
INTELSAT 501 is classified as:


NORAD ID: 12474
Int'l Code: 1981-050A
Perigee: 36,167.1 km
Apogee: 36,225.4 km
Inclination: 15.2 °
Period: 1,456.7 minutes
Semi major axis: 42567 km
RCS: 3.981 m2 (large)
Launch date: May 23, 1981
Source: International Telecommunications Satellite Organization (ITSO)
Your satellite tracking list
Your tracking list is empty





NASA's NSSDC Master Catalog

Two Line Element Set (TLE):
1 12474U 81050A   15139.53520826  .00000003  00000-0  00000+0 0  9994
2 12474 015.2421 000.3315 0006839 145.6266 153.5258 00.98852930 97743

Source of the keplerian elements: AFSPC

N2YO: 423